Retour au catalogue

STARLINK-33859

ActifCommunicationsVLEO
NORAD 63640·PAYLOAD·🇺🇸 United States

Lancé Apr 25, 2025 depuis Cape Canaveral Space Force Station

Loading…

Prochains Passages (prochaines 24 heures)

TLE

FraisSource: CelesTrak SupGP

Époque: Sep 14, 2026, 21:00 UTC

1 63640C 25083G   26257.87548611  .00046088  00000+0  16692-2 0  2577
2 63640  43.0042  17.1746 0002116 269.1845 173.7828 15.27556544    16

Suivez STARLINK-33859 en temps réel avec AllMySat

Download on the App Store